Location: ?astrovice
(49.6513°N, 14.9287°E)
Time: 18:11:18
(UTC+00:00)

SL-16 R/B - Pass Details

Date: 09 April 2020
Orbit: 985 x 1007 km, 99.5° (Epoch: 25 May)

Event Time Altitude Azimuth Distance (km) Brightness Sun altitude
Exits shadow 23:48:42 42° 96° (E) 1,389 3.2 -31.4°
Maximum altitude 23:49:53 48° 64° (ENE) 1,296 3.3 -31.4°
Drops below altitude 10° 23:55:49 10° 353° (N) 2,774 5.6 -31.1°
Sets 23:58:22 0° 348° (NNW) 3,724 6.4 -31.0°
